Location: ?????????-????????
(55.7667°N, 38.4333°E)
Time: 09:56:23
(UTC+00:00)

Daily predictions for brighter satellites

Satellite Brightness Start Highest point End
(mag) Time Altitude Azimuth Time Altitude Azimuth Time Altitude Azimuth
Cosmos 1980 4.1 18:21:31 10° SW 18:27:09 72° NW 18:32:50 10° NNE
Okean 3 Rocket 3.9 18:24:14 10° N 18:28:35 53° ENE 18:32:52 10° SSE
Cosmos 923 Rocket 4.0 18:24:08 10° SSW 18:29:26 74° ESE 18:34:48 10° NNE
Cosmos 1378 2.8 18:26:48 10° SSW 18:30:06 88° WNW 18:33:24 10° NNE
USA 234 3.5 18:23:32 10° E 18:30:07 81° N 18:36:40 10° W
SPOT 5 3.5 18:25:47 10° S 18:30:18 51° W 18:34:40 10° NNW
Cosmos 921 Rocket 3.9 18:26:34 10° SSE 18:30:36 34° ESE 18:34:39 10° NE
Cosmos 1943 4.5 18:31:51 10° SSE 18:36:06 22° ESE 18:40:21 10° NE
ARGOS Delta rocket 4.1 18:32:06 10° S 18:37:14 77° WSW 18:42:06 10° NNW
Landsat 5 4.3 18:35:31 10° NE 18:38:48 28° E 18:42:05 10° SSE
Landsat 4 3.9 18:35:53 10° S 18:39:21 61° WSW 18:42:51 10° NNW
USA 306 2.6 18:35:47 10° W 18:39:30 66° S 18:43:23 10° ESE
Cosmos 1656 Rocket 4.0 18:34:38 10° NW 18:40:01 63° WSW 18:45:25 10° SSE
ATLAS 2AS CENTAUR R/B 2.9 18:33:20 10° SW 18:40:41 89° NW 18:47:46 10° NE
Terra 2.0 18:36:31 10° S 18:41:13 71° WSW 18:45:58 10° NNW
Okean O Rocket 4.2 18:38:15 10° SW 18:41:17 18° W 18:44:20 10° NW
USA 59 Rocket 0.9 18:40:27 10° NW 18:43:36 37° NNE 18:47:32 10° E
Meteor 1-14 Rocket 4.4 18:38:18 10° NNW 18:44:08 89° E 18:50:03 10° SSE
NOSS 2-1 (E) 4.4 18:41:17 10° NW 18:44:26 38° NNE 18:48:24 10° E
ERS-1 Rocket 3.5 18:40:37 10° S 18:45:35 59° W 18:50:35 10° NNW
Meteor 1-11 Rocket 4.1 18:42:02 10° N 18:47:33 56° ENE 18:53:09 10° SSE
USA 281 3.4 18:41:18 10° SSE 18:47:54 78° WSW 18:54:34 10° NNW
Cosmos 1733 4.4 18:46:05 10° N 18:49:06 26° ENE 18:52:06 10° SE
SPOT 3 Rocket 3.7 18:44:24 10° SSE 18:49:33 77° WSW 18:54:44 10° NNW
Cosmos 1943 Rocket 4.4 18:47:24 10° WNW 18:51:19 19° W 18:55:13 10° SW
Cosmos 1842 Rocket 4.0 18:48:15 10° SSE 18:52:31 46° E 18:56:46 10° NNE
Lacrosse 4 Rocket 3.4 18:49:26 10° NNW 18:52:41 23° NNE 18:55:57 10° E
H-2A R/B 4.2 18:51:18 10° ESE 18:54:33 23° ENE 18:57:54 10° N
NOSS 2-1 (D) 4.1 18:52:52 10° NW 18:56:06 43° NNE 19:00:09 10° ESE
Cosmos 1331 Rocket 4.1 18:52:38 10° NNW 18:57:55 73° ENE 19:02:58 11° SE
USA 307 1.2 18:57:07 10° WSW 18:57:34 18° SW 18:57:34 18° SW
Cosmos 1110 Rocket 4.1 18:54:21 10° NNW 18:59:42 80° ENE 19:04:49 11° SSE
Cosmos 2279 Rocket 4.0 18:53:38 10° N 18:59:53 84° ENE 19:06:05 10° SSE
Cosmos 1634 Rocket 4.3 18:54:24 10° NNW 19:00:42 72° W 19:06:55 10° S
Cosmos 1743 3.5 18:59:21 10° NNW 19:02:50 45° W 19:06:17 10° SSW
ARIANE 5 R/B 3.5 19:01:09 10° SE 19:05:09 38° ENE 19:09:09 10° N
USA 229 DEB 4.3 18:59:45 10° NW 19:06:53 60° SW 19:14:21 11° SSE
USA 229 4.2 18:59:51 10° NW 19:07:00 61° SW 19:14:28 11° SSE
ISS -2.9 19:05:20 10° W 19:08:23 33° SSW 19:10:59 13° SE
Cosmos 1340 Rocket 4.4 19:06:59 12° SE 19:09:41 21° E 19:12:42 10° NE
Cosmos 2112 Rocket 4.1 19:06:32 10° SSW 19:11:52 85° WNW 19:17:12 10° NNE
Cosmos 1680 Rocket 4.0 19:16:57 10° SW 19:22:12 65° WNW 19:27:29 10° NNE
Cosmos 1726 2.2 19:20:12 10° NNW 19:23:19 55° W 19:26:04 12° S
Meteor 2-6 Rocket 4.3 19:18:27 10° SSW 19:24:05 84° WNW 19:29:37 10° NNE
Cosmos 1805 4.1 19:24:50 10° N 19:28:19 37° ENE 19:31:06 14° SE
Cosmos 1743 Rocket 3.6 19:25:48 10° N 19:30:11 71° ENE 19:33:46 15° SSE
NOSS 2-1 (C) 3.5 19:27:57 10° NW 19:31:21 67° NE 19:35:48 10° ESE
Kosmos-1783 3.5 19:30:37 10° W 19:32:06 39° NNW 19:34:11 10° NE
Sich 1 3.0 19:31:11 10° N 19:35:34 84° ENE 19:39:07 15° SSE
SL-16 R/B 2.5 19:30:26 10° SW 19:36:07 71° NW 19:41:49 10° NNE
MetOp-A 4.4 19:33:25 11° S 19:37:35 51° W 19:42:17 10° NNW
Cosmos 1603 4.3 19:33:52 12° S 19:38:37 38° ESE 19:43:52 10° NE
Lacrosse 5 4.1 19:38:30 10° W 19:40:21 12° WSW 19:42:11 10° SW
Cosmos 1452 Rocket 4.0 19:37:00 10° NW 19:42:07 54° WSW 19:46:28 14° S
Cosmos 1536 3.4 19:39:53 10° NNW 19:43:39 51° W 19:46:58 13° S
Cosmos 1975 3.5 19:40:10 10° N 19:43:58 43° ENE 19:46:47 16° SE
Spot 1 4.2 19:40:28 10° NNE 19:44:31 68° WNW 19:48:34 10° SSW
Meteor 1-27 Rocket 3.8 19:39:56 13° S 19:44:47 61° E 19:50:15 10° NNE
Cosmos 1408 Rocket 4.1 19:40:55 10° NNW 19:45:16 55° W 19:49:10 13° S
Cosmos 2369 Rocket 3.5 19:40:52 10° NW 19:45:40 30° WSW 19:50:28 10° SSW
Lacrosse 5 rocket 1.3 19:44:47 10° WSW 19:49:05 81° SSE 19:53:15 10° ENE
Cosmos 1340 2.3 19:49:44 10° NNW 19:53:11 84° WSW 19:55:25 20° S
Cosmos 2221 4.5 19:49:49 10° SW 19:53:34 28° WNW 19:57:21 10° N
PSLV R/B 4.5 19:49:54 10° NNE 19:53:48 42° E 19:56:27 18° SSE
Okean 1 3.2 19:50:57 14° S 19:54:12 88° ESE 19:58:07 10° NNE
Cosmos 1626 3.5 19:59:00 15° ESE 20:00:22 20° E 20:02:48 10° NE
GEOS 3 Rocket 3.7 19:57:45 10° NE 20:03:00 81° NW 20:08:09 10° SW
Cosmos 2237 Rocket 4.4 19:58:59 10° W 20:03:54 29° NNW 20:08:50 10° NNE
BREEZE-M DEB (TANK) 3.6 20:02:15 10° SW 20:07:54 - ESE 20:02:58 16° SSW
Cosmos 921 Rocket 4.3 20:04:26 10° SW 20:08:43 42° WNW 20:13:02 10° NNE
Meteor 2-17 Rocket 4.4 20:06:28 13° S 20:11:54 86° E 20:17:59 10° NNE
USA 306 3.3 20:09:26 10° W 20:13:01 37° SSW 20:15:01 21° SSE
USA 234 3.2 20:06:39 10° ESE 20:13:13 79° SSW 20:19:49 10° WNW
Cosmos 1943 3.2 20:13:46 10° SSW 20:19:28 89° WNW 20:25:11 10° NE
Terra 4.3 20:17:34 10° WSW 20:19:42 13° W 20:21:49 10° NW
Cosmos 1328 Rocket 4.2 20:19:15 20° SSE 20:21:51 42° E 20:25:58 10° NNE
Spot 4 3.8 20:19:23 19° SSE 20:22:45 89° ENE 20:27:34 10° NNW
Meteor 2-4 Rocket 4.1 20:18:25 18° S 20:22:47 59° E 20:28:36 10° NNE
Cosmos 1733 4.3 20:20:37 10° NNW 20:23:50 33° W 20:26:10 15° SSW
IRIDIUM 104 4.4 20:18:35 10° N 20:23:50 78° W 20:27:45 18° S
ALOS 2 2.7 20:21:27 19° SSE 20:24:29 69° ENE 20:28:52 10° NNW
Cosmos 1470 Rocket 4.0 20:20:11 10° N 20:24:36 55° ENE 20:27:38 19° SE
Cosmos 1048 Rocket 4.3 20:20:20 10° SW 20:25:28 66° WNW 20:30:35 10° NNE
H-2A R/B 2.7 20:26:30 21° S 20:29:10 61° WSW 20:33:23 10° NNW
Cosmos 1092 Rocket 4.1 20:25:48 18° S 20:30:38 71° E 20:36:56 10° NNE
Lacrosse 4 Rocket 1.4 20:27:30 10° NW 20:31:35 77° NE 20:34:40 17° SE
ATLAS 2AS CENTAUR R/B 3.8 20:25:18 10° W 20:32:18 49° NNW 20:39:00 10° ENE
Cosmos 1428 Rocket 4.4 20:27:23 16° S 20:32:26 88° ESE 20:38:35 10° NNE
USA 59 Rocket 0.1 20:29:47 10° WNW 20:33:23 54° SW 20:36:26 20° SSE
Cosmos 1656 3.6 20:27:56 10° NW 20:33:25 89° NE 20:37:39 17° SSE
NOSS 2-1 (E) 3.6 20:30:38 10° WNW 20:34:13 54° SW 20:37:17 20° SSE
Cosmos 1666 Rocket 3.6 20:30:12 10° NNW 20:34:34 73° W 20:37:19 22° S
Cosmos 1151 Rocket 3.2 20:31:54 17° SSW 20:35:14 74° WNW 20:39:37 10° N
Cosmos 1633 Rocket 3.1 20:33:53 10° NNW 20:38:19 80° W 20:41:08 22° S
ARIANE 5 R/B 3.7 20:38:36 16° SSW 20:41:35 35° W 20:45:34 10° NNW
Cosmos 1992 Rocket 4.0 20:36:56 10° NNW 20:42:10 72° WSW 20:45:43 21° SSE
Cosmos 1697 Rocket 3.2 20:38:20 10° NNW 20:43:55 57° NE 20:49:27 10° SE
ISS -1.6 20:42:34 10° WSW 20:43:45 13° SW 20:43:45 13° SW
CZ-2C R/B 4.2 20:40:47 10° N 20:45:18 59° WNW 20:49:14 13° SW
Cosmos 1340 Rocket 3.4 20:42:10 14° SW 20:45:26 53° WNW 20:49:23 10° N
NOSS 2-1 (D) 3.9 20:42:19 10° WNW 20:45:49 43° SW 20:48:21 22° SSE
H-2A R/B 3.3 20:42:46 10° NNE 20:46:41 29° E 20:49:05 18° SE
Cosmos 1980 Rocket 3.5 20:43:52 10° NNW 20:49:14 40° NE 20:54:36 10° ESE
Cosmos 1842 4.4 20:48:05 19° SE 20:49:51 28° E 20:53:04 10° NNE
Cosmos 1933 Rocket 4.0 20:45:47 10° N 20:50:02 52° ENE 20:52:58 19° SE
Cosmos 614 Rocket 4.1 20:47:59 20° S 20:51:33 62° ESE 20:56:44 10° NNE
Cosmos 1908 4.2 20:49:30 10° N 20:52:49 34° ENE 20:55:06 17° SE
Cosmos 1766 3.1 20:50:29 10° NNW 20:54:14 83° W 20:56:16 26° S
Cosmos 1470 3.0 20:54:23 10° N 20:58:05 55° ENE 21:00:14 22° SE
Cosmos 1707 3.9 21:00:02 19° SE 21:01:48 28° E 21:05:00 10° NNE
Cosmos 2360 4.2 21:03:57 10° NW 21:09:42 83° WSW 21:14:08 17° SSE
KORONAS-FOTON 4.5 21:08:47 23° SSE 21:10:33 40° E 21:14:02 10° NNE
SL-16 R/B 4.4 21:09:54 10° NNW 21:14:38 26° NNE 21:19:21 10° E
USA 267 3.5 21:11:14 10° ENE 21:17:32 48° SE 21:23:24 12° SW
Cosmos 1975 4.4 21:16:27 10° NW 21:19:39 24° W 21:21:58 15° SW
SL-16 R/B 4.4 21:16:30 10° W 21:21:12 26° NNW 21:25:57 10° NNE
Cosmos 1603 4.3 21:17:00 10° SW 21:22:36 56° NW 21:28:16 10° NNE
Orbus 7S? 4.4 21:24:43 20° SE 21:24:43 20° SE 21:26:35 10° E
NOSS 3-4 (A) 3.8 21:20:58 10° NW 21:27:30 86° NE 21:35:08 10° SE
NOSS 3-4 (C) 3.8 21:21:01 10° NW 21:27:34 86° NE 21:35:11 10° SE
Lacrosse 5 rocket 1.5 21:23:20 10° W 21:27:34 74° N 21:31:40 10° E
Cosmos 1269 Rocket 4.1 21:24:14 21° S 21:27:43 67° ESE 21:32:58 10° NNE
Helios 1A Rocket 4.2 21:24:57 11° SE 21:28:20 34° ENE 21:31:51 10° N
Cosmos 1140 Rocket 4.5 21:25:30 19° SSE 21:28:33 34° ESE 21:33:14 10° NE
Cosmos 2082 Rocket 4.3 21:27:36 10° SE 21:30:39 15° E 21:33:42 10° ENE
PSLV R/B 3.7 21:28:50 10° NNE 21:33:30 85° ESE 21:36:22 22° SSW
Cosmos 1626 2.9 21:31:50 19° SW 21:33:45 36° WNW 21:36:47 10° N
Cosmos 1674 2.4 21:34:14 28° S 21:35:58 90° WNW 21:39:29 10° NNE
Meteor 2-10 Rocket 4.3 21:30:15 10° N 21:36:00 57° ENE 21:41:12 13° SSE
Cosmos 2315 Rocket 4.1 21:31:25 10° N 21:37:42 74° ENE 21:42:48 17° SSE
Cosmos 1833 Rocket 3.3 21:35:30 20° S 21:38:56 44° ESE 21:44:14 10° NE
S3M 4.1 21:32:38 10° NNW 21:39:02 82° W 21:43:47 19° S
NOSS 3-3 (C) 4.2 21:38:41 20° SSW 21:42:20 48° SE 21:48:38 10° NE
Cosmos 1300 3.7 21:39:29 10° N 21:42:51 37° ENE 21:45:31 15° SE
Cosmos 44 Rocket 3.2 21:38:07 10° NW 21:43:08 75° SW 21:47:31 13° SE
BREEZE-M DEB (TANK) 4.0 21:33:37 10° SW 21:44:44 38° S 21:48:24 10° ESE
SL-24 R/B 4.3 21:42:01 10° NNE 21:46:23 74° WNW 21:49:34 20° SSW
GP-B 3.1 21:51:20 10° N 21:55:47 90° E 21:58:36 22° S
Cosmos 1763 Rocket 3.7 21:50:44 10° NNW 21:56:05 73° ENE 22:01:23 10° SE
USA 234 3.7 21:51:34 14° SSE 21:56:50 39° SW 22:02:56 10° WNW
Cosmos 1515 Rocket 4.0 21:54:34 20° SW 21:57:26 55° WNW 22:01:43 10° N
CZ-2D R/B 4.4 21:55:50 10° NE 21:58:55 15° E 22:01:59 10° ESE
SL-8 R/B 4.2 21:56:18 10° WSW 22:00:36 35° S 22:04:56 10° ESE
ALOS 2 4.4 21:58:50 13° SW 22:01:17 20° W 22:04:30 10° NW
Cosmos 1400 Rocket 3.9 21:59:47 17° SSE 22:02:19 35° E 22:05:59 10° NNE
Cosmos 2333 Rocket 4.5 21:57:48 10° NNW 22:02:36 27° NNE 22:07:25 10° E
Meteor 1-13 Rocket 4.4 21:58:56 20° S 22:03:15 81° ESE 22:09:11 10° NNE
Cosmos 1869 Rocket 3.8 21:59:01 10° NNW 22:03:17 57° W 22:05:54 22° SSW
NOSS 8 (A) 4.3 22:01:58 15° WSW 22:04:40 77° NW 22:07:36 10° NE
Cosmos 1733 Rocket 3.2 22:02:15 10° N 22:06:35 68° ENE 22:09:57 16° SSE
Lacrosse 4 Rocket 2.9 22:06:30 10° WNW 22:09:26 19° WSW 22:10:34 17° SW
Cosmos 1655 Rocket 4.1 22:07:35 19° S 22:12:23 82° E 22:18:48 10° NNE
Aureole 3 4.4 22:10:46 15° SE 22:12:31 24° E 22:15:00 10° NE
Cosmos 2322 Rocket 3.9 22:11:55 10° NNW 22:17:04 34° NE 22:22:12 10° ESE
Cosmos 1818 3.6 22:13:02 17° SW 22:17:22 77° SE 22:22:52 10° NE
Cosmos 1346 Rocket 3.3 22:13:44 10° N 22:17:34 55° ENE 22:20:56 13° SSE
H-2A R/B 2.8 22:18:17 10° N 22:22:34 47° WNW 22:25:53 16° SW
USA 59 Rocket 2.3 22:21:17 10° WSW 22:22:42 11° WSW 22:22:59 11° SW
Cosmos 540 Rocket 3.5 22:18:46 10° NNW 22:23:59 86° ENE 22:29:09 10° SSE
Resurs 1-4 Rocket 3.9 22:20:00 10° NE 22:24:04 22° E 22:28:06 10° SE
Meteor 1-15 Rocket 4.5 22:18:39 10° NNW 22:24:14 56° W 22:28:18 18° SSW
ATLAS 2AS CENTAUR R/B 3.9 22:17:38 10° WNW 22:24:28 47° NNE 22:31:01 10° E
Cosmos 1842 4.3 22:22:35 16° SW 22:25:01 33° WNW 22:28:25 10° N
Meteor 1-12 Rocket 4.4 22:19:39 10° NNW 22:25:27 68° W 22:30:07 17° S
Cosmos 1908 4.5 22:24:38 10° NNW 22:27:37 25° W 22:29:18 18° SW
Cosmos 1697 Rocket 3.4 22:22:35 10° NW 22:27:43 37° WSW 22:31:17 18° SSW
OPS 6432 4.0 22:25:27 10° NW 22:28:41 78° SW 22:31:47 10° SE
APEX 1.8 22:28:03 36° SW 22:28:45 68° NW 22:30:56 10° NNE
Cosmos 1441 Rocket 3.9 22:25:39 10° NNW 22:28:59 35° W 22:30:46 21° SSW
CZ-2C R/B 3.7 22:25:10 10° SE 22:30:01 43° ENE 22:34:54 10° N
SL-14 R/B 3.4 22:27:37 20° S 22:30:11 64° E 22:34:01 10° NNE
Cosmos 1953 3.4 22:27:08 10° N 22:30:54 41° ENE 22:34:38 10° SE
Cosmos 1980 Rocket 2.3 22:27:55 10° NW 22:33:33 61° WSW 22:38:51 12° SSE
COSMOS 2406 4.4 22:30:09 13° SSE 22:34:33 33° ESE 22:39:38 10° NE
Cosmos 1707 3.8 22:34:21 16° SW 22:36:46 32° WNW 22:40:07 10° N
Cosmos 2369 3.7 22:31:28 10° NW 22:37:10 71° WSW 22:42:51 10° SSE
Cosmos 2266 Rocket 4.4 22:35:15 15° SW 22:40:10 53° WNW 22:46:18 10° N
SL-16 R/B 3.9 22:35:11 10° ESE 22:40:57 40° ENE 22:46:44 10° N
Cosmos 1758 3.6 22:37:54 10° NNW 22:41:37 49° W 22:44:00 20° SSW
Cosmos 1862 Rocket 3.7 22:38:55 18° S 22:42:06 69° E 22:46:26 10° NNE
Meteor 1-16 Rocket 4.3 22:37:29 10° NNW 22:43:06 86° ENE 22:48:51 10° SSE
Cosmos 1607 4.2 22:39:11 16° SSW 22:44:18 63° SE 22:50:43 10° NE
Meteor 1-21 4.4 22:45:11 15° S 22:49:51 75° E 22:55:37 10° NNE
SL-16 R/B 2.5 22:54:01 10° NNW 22:59:43 71° NE 23:05:23 10° SE
Cosmos 1455 2.3 22:57:22 10° N 23:00:49 65° ENE 23:04:15 10° SSE
USA 267 3.3 22:54:25 10° ENE 23:01:01 87° SSE 23:07:35 10° WSW
Helios 1A Rocket 3.7 23:00:20 17° SSW 23:02:42 32° W 23:06:13 10° NNW
Cosmos 1315 Rocket 4.1 23:01:00 10° SSE 23:04:29 33° E 23:08:02 10° NNE
H-2A R/B 4.2 23:00:54 10° NNE 23:04:46 44° E 23:08:22 11° S
Cosmos 2228 Rocket 3.4 23:01:24 16° SSW 23:04:48 59° WNW 23:09:16 10° N
NOSS 3-3 (A) 4.2 23:00:03 10° WSW 23:05:52 75° NNW 23:12:50 10° NE
Lacrosse 5 rocket 1.2 23:01:51 10° WNW 23:06:00 70° SSW 23:09:58 10° ESE
Cosmos 1707 Rocket 3.8 23:03:45 16° SSW 23:07:11 62° WNW 23:11:37 10° N
Cosmos 841 Rocket 3.5 23:04:28 10° NNW 23:09:43 88° WSW 23:14:58 10° SSE
Cosmos 1140 Rocket 4.0 23:05:26 12° SW 23:10:08 53° NW 23:15:17 10° NNE
Cosmos 2251 Rocket 3.6 23:05:57 15° SW 23:10:24 74° WNW 23:15:43 10° NNE
Meteor 1-4 Rocket 3.4 23:09:09 11° SSE 23:11:42 34° E 23:14:27 10° NNE
Cosmos 2237 4.3 23:06:58 10° NW 23:12:45 90° E 23:18:30 10° SSE
RESURS DK-1 4.4 23:09:58 10° NNW 23:13:40 32° NE 23:17:21 10° ESE
Cosmos 2082 Rocket 2.4 23:08:47 14° SSW 23:13:41 66° ESE 23:19:22 10° NE
Cosmos 676 Rocket 4.4 23:12:40 13° S 23:17:22 59° ESE 23:22:38 10° NNE
Cosmos 1300 4.0 23:14:35 10° NW 23:17:26 23° W 23:19:33 14° SW
NOSS 3-4 (A) 4.4 23:12:00 10° WNW 23:18:05 36° WSW 23:24:57 10° S
NOSS 3-4 (C) 4.4 23:12:03 10° WNW 23:18:08 36° WSW 23:25:02 10° S
Cosmos 2219 Rocket 3.8 23:13:53 10° NNW 23:19:09 38° NE 23:24:26 10° ESE
ADEOS II 3.3 23:14:35 10° NNE 23:19:27 37° E 23:24:16 10° SSE
Cosmos 1833 Rocket 3.4 23:17:25 10° WSW 23:22:52 50° NW 23:28:21 10° NNE
Cosmos 407 Rocket 3.9 23:18:38 12° SW 23:23:28 58° NW 23:28:40 10° NNE
Cosmos 1954 Rocket 4.1 23:20:53 13° SSW 23:25:39 78° ESE 23:30:59 10° NNE
Cosmos 2360 Rocket 2.8 23:20:31 10° NNW 23:26:10 61° NE 23:31:48 10° SE
Cosmos 1190 Rocket 4.1 23:21:55 13° SSW 23:26:37 84° WNW 23:31:58 10° NNE
MOZ.5/SAFIR/RUBIN 5/SL-8 4.4 23:24:18 12° SSW 23:28:19 40° W 23:32:47 10° NNW
Cosmos 1782 Rocket 3.6 23:24:28 10° N 23:28:54 81° E 23:33:16 10° SSE
IDEFIX/ARIANE 42P 2.7 23:24:45 10° NNE 23:30:02 76° ESE 23:35:18 10° SSW
Cosmos 1908 Rocket 3.7 23:25:42 10° NNW 23:30:06 58° W 23:34:26 10° S
Okean 1-7 3.0 23:26:56 12° SSW 23:30:49 81° WNW 23:35:09 10° N
Okean 2 3.3 23:28:57 12° SSW 23:32:33 83° WNW 23:36:34 10° N
NOSS 3-3 (C) 4.4 23:27:18 10° WSW 23:33:09 64° NNW 23:40:10 10° NE
SJ 16-02 3.7 23:31:35 10° SE 23:34:19 17° E 23:37:05 10° ENE
CZ-2C R/B 3.9 23:31:06 10° NNE 23:36:50 56° E 23:42:32 10° S
Cosmos 1400 Rocket 4.0 23:34:57 11° SW 23:38:23 31° WNW 23:42:00 10° N
Cosmos 1408 4.1 23:36:55 10° SSE 23:39:25 24° E 23:41:56 10° NE
Cosmos 1745 Rocket 4.1 23:33:34 10° S 23:39:47 86° E 23:46:07 10° NNE
Cosmos 2278 3.8 23:34:17 10° NW 23:39:54 58° WSW 23:45:29 10° SSE
CZ-2D R/B 2.4 23:34:26 10° NNE 23:39:57 70° ESE 23:45:24 10° S
ALOS 3.8 23:37:36 10° NNE 23:41:46 32° E 23:45:53 10° SSE
Cosmos 2333 Rocket 2.5 23:42:05 10° NNW 23:47:49 74° NE 23:53:33 10° SE
COBE Rocket 4.0 23:44:21 10° N 23:49:09 73° WNW 23:54:03 10° SSW
Cosmos 1346 Rocket 4.4 23:50:18 10° NW 23:53:04 19° W 23:55:50 10° SW
FENGYUN 3A 4.1 23:47:53 10° NNE 23:53:14 60° ESE 23:58:32 10° S
Aureole 3 4.4 23:50:51 10° WSW 23:53:14 21° WNW 23:55:38 10° NNW
Okean 3 4.4 23:50:24 10° SW 23:54:08 34° WNW 23:57:55 10° N
Cosmos 2242 Rocket 4.3 23:50:21 10° S 23:54:40 53° E 23:59:03 10° NNE
